Regional Weather Roundup
Issued by NWS State College, PA

Home | Current Version | Previous Version | Graphics & Text | Print | Product List | Glossary On
Versions: 1 2 3 4 5 6 7 8 9 10 11 12 13 14 15 16 17 18 19 20 21 22 23 24 25 26 27 28 29 30 31 32 33 34 35 36 37 38 39 40 41 42 43 44 45 46 47 48 49 50
000
ASUS41 KCTP 201310
RWRCTP

REGIONAL WEATHER ROUNDUP
NATIONAL WEATHER SERVICE STATE COLLEGE PA
800 AM EST MON NOV 20 2017

Note: "fair" indicates few or no clouds below 12,000 feet with no
significant weather and/or obstructions to visibility.

* = STATION THAT DOES NOT REPORT PRECIPITATION /E.G. RAIN...SNOW...ETC/
    THUNDER OR FOG.

PAZ002>004-007>009-013>016-020>023-029>032-201400-
WESTERN PENNSYLVANIA

CITY           SKY/WX    TMP DP  RH WIND       PRES   REMARKS
ERIE           CLOUDY    32  25  75 S15       30.05R
MEADVILLE      CLOUDY    28  24  85 SW12      30.07R
FRANKLIN*      CLOUDY    28  22  78 SW14      30.08R
NEW CASTLE     CLOUDY    28  24  85 SW7       30.15R
BEAVER COUNTY  PTCLDY   N/A N/A N/A SW8       30.14R
BUTLER*        MOCLDY    28  21  75 SW10      30.15R
PITTSBURGH INT PTCLDY    28  21  75 SW8       30.15R
PITTSBURGH     CLEAR     28  19  69 SW13      30.15R
INDIANA*       MOCLDY    28  23  80 W15       30.16R
LATROBE        MOCLDY    28  21  74 W21       30.17R
WASHINGTON CO* CLEAR     27  21  78 S7        30.21R
$$

PAZ004>006-010>012-017>019-024>028-033>037-041-042-045-046-049>053-201400-
CENTRAL PENNSYLVANIA

CITY           SKY/WX    TMP DP  RH WIND       PRES   REMARKS
BRADFORD       LGT SNOW  27  23  85 W8        29.98R FOG
DUBOIS         CLOUDY    28  19  69 W20       30.04R WCI  15
CLEARFIELD     CLOUDY    30  21  69 SW13G20   30.06R
JOHNSTOWN      CLOUDY    26  18  71 W13G25    30.07R WCI  15
ALTOONA        CLEAR     31  19  61 W21G29    30.09R
STATE COLLEGE  CLOUDY    30  21  69 W16       30.07R
WILLIAMSPORT   CLOUDY    37  24  59 W12       30.05R
SELINSGROVE    CLOUDY    36  21  54 W5        30.10R
FT INDIANTOWN  MOCLDY    36  18  48 W10G32    30.09R
CAPITAL CITY   MOCLDY    38  17  42 W8        30.12R
HARRISBURG     PTCLDY    38  22  52 W14       30.11R
YORK           PTCLDY    35  19  52 W6        30.13R
$$

PAZ038>040-043-044-047-048-054-055-060>062-067>071-201400-
EASTERN PENNSYLVANIA

CITY           SKY/WX    TMP DP  RH WIND       PRES   REMARKS
SCRANTON       CLOUDY    33  25  72 SW12      30.00R
MOUNT POCONO   NOT AVBL
ALLENTOWN      CLEAR     36  22  56 W14       30.03R
QUAKERTOWN*    PTSUNNY   36  23  60 W9G16     30.05R
READING        PTCLDY    37  23  56 W13G22    30.08R
LANCASTER      CLEAR     35  22  58 W15       30.10R
COATESVILLE    SUNNY     34  21  60 NW16G22   30.09R
POTTSTOWN      MOCLDY    35  21  56 W10G20    30.09R
BLUE BELL      PTSUNNY   34  23  64 W7        30.09R
DOYLESTOWN     SUNNY     35  21  56 W9        30.05R
WILLOW GROVE   NOT AVBL
NORTH PHILA    SUNNY     39  23  52 W9        30.10R
PHILADELPHIA   MOSUNNY   38  21  50 W14       30.11R
$$




USA.gov is the U.S. government's official web portal to all federal, state and local government web resources and services.